Regional Weather Roundup
Issued by NWS Charleston, SC

Current Version | Previous Version | Text Only | Print | Product List | Glossary Off
Versions: 1 2 3 4 5 6 7 8 9 10 11 12 13 14 15 16 17 18 19 20 21 22 23 24 25 26 27 28 29 30 31 32 33 34 35 36 37 38 39 40 41 42 43 44 45 46 47 48 49 50
000 ASUS42 KCHS 230228 RWRCHS REGIONAL WEATHER ROUNDUP NATIONAL WEATHER SERVICE CHARLESTON SC 1000 PM EDT FRI JUL 22 2016 NOTE: "FAIR" INDICATES FEW OR NO CLOUDS BELOW 12,000 FEET WITH NO SIGNIFICANT WEATHER AND/OR OBSTRUCTIONS TO VISIBILITY. NOT ALL STATIONS ARE QUALITY CONTROLLED. USE DATA WITH CAUTION... ESPECIALLY DEWPOINT OBSERVATIONS. SCZ027-030-031-034>040-042>050-230300- ...SOUTHEAST SOUTH CAROLINA... CITY SKY/WX TMP DP RH WIND PRES REMARKS N CHARLESTON CLEAR 80 74 81 S7 30.04R WATERFRONT PRK N/A 84 76 77 VRB3 30.02R HX 93 MOUNT PLEASANT FAIR 79 75 89 CALM 30.05R JOHNS ISLAND FAIR 81 75 83 S5 30.05S PINOPOLIS NOT AVBL MONCKS CORNER FAIR 77 72 83 CALM 30.04R SUMMERVILLE FAIR 81 75 83 CALM 30.04S BEAUFORT MCAS CLEAR 84 75 74 S5 30.04R HX 92 BEAUFORT ARPT FAIR 81 75 83 S6 30.04S HILTON HEAD IS CLEAR 82 75 78 S7 30.06S WALTERBORO CLOUDY 82 73 74 S6 30.04S ALLENDALE FAIR 82 75 78 S5 30.02S ...SOUTHERN MIDLANDS AND PEE DEE... CITY SKY/WX TMP DP RH WIND PRES REMARKS GEORGETOWN FAIR 75 72 88 SW3 30.05R KINGSTREE FAIR 79 72 78 SE5 30.03R ORANGEBURG MOCLDY 81 76 84 SW3 30.02S BARNWELL NOT AVBL AIKEN FAIR 81 72 74 S3 30.06S MANNING FAIR 81 75 83 S5 30.03R COLUMBIA PTCLDY 86 73 65 S5 30.01R HX 93 SUMTER CLOUDY 82 73 74 S6 30.00R FLORENCE MOCLDY 83 75 77 S7 30.02R HX 90 MYRTLE BEACH CLEAR 82 68 61 SW8 30.06R N MYRTLE BEACH CLEAR 84 71 65 SW9 30.04R $$ GAZ063-065-086>088-099>101-113>116-118-119-134>141-150-230300- ...SOUTHEAST GEORGIA... CITY SKY/WX TMP DP RH WIND PRES REMARKS SAVANNAH ARPT CLEAR 81 74 79 S6 30.05R HUNTER AAF CLEAR 82 77 83 S5 30.02R HX 91 FORT STEWART MOCLDY 82 73 73 SE1 30.03R STATESBORO PTCLDY 82 77 86 SE3 30.04R SYLVANIA NOT AVBL CLAXTON FAIR 79 77 92 CALM 30.04R ...CSRA...CENTRAL AND FAR SOUTHEAST GEORGIA... CITY SKY/WX TMP DP RH WIND PRES REMARKS THOMSON PTCLDY 82 75 79 S3 30.07S AUGUSTA-BUSH PTCLDY 82 73 74 S5 30.00S AUGUSTA-DANIEL CLEAR 87 72 60 VRB5 30.03S HX 93 SWAINSBORO FAIR 81 73 78 CALM 30.06R VIDALIA CLOUDY 82 73 74 SE5 30.04R EASTMAN FAIR 80 67 64 CALM 30.06R HAZLEHURST FAIR 84 71 63 S3 30.04R ALMA RAIN 79 73 83 E10G18 30.06R WAYCROSS CLEAR 85 76 75 SW5 30.06R HX 94 JESUP FAIR 81 77 89 CALM 30.05S BAXLEY TSTM 79 79 100 SE12G17 30.07R BRUNSWICK CLEAR 86 79 79 SE6 30.06R HX 99 SAINT SIMONS CLEAR 85 75 72 S9 30.05R HX 93 $$ SCZ027-028-034-036>038-045-046-048>050-GAZ119-141-230300- ...LAKE AND SUPPLEMENTAL COASTAL OBSERVATIONS... STATION/POSITION TIME TEMP WIND PRES WAVE SWELL AIR SEA DIR/SP/G HT/PER HT/PER/DIR (UTC) (F) (DEG/KT/KT) (MB) (FT/S) (FT/S/D) WINYAH BAY 0100 83 200/ 5 1016.0 LAKE MURRAY 0100 89 220/ 5/ 7 1015.2S ACE BASIN NERRS 0100 82 CALM 1017.0R FORT PULASKI 0200 84 88 170/ 3/ 6 N/A SAPELO ISLAND 0200 85 160/ 9 1018.0R $$ ANZ835-935-AMZ111-154-330-350-352-354-370-450-454-472-230300- ...C-MAN AND BUOY OBSERVATIONS... STATION/POSITION TIME TEMP WIND PRES WAVE SWELL AIR SEA DIR/SP/G HT/PER HT/PER/DIR (UTC) (F) (DEG/KT/KT) (MB) (FT/S) (FT/S/D) BUOY 41004 0150 84 87 170/ 8/ 10 1017.2R 3/ 9 2/130/ 9 BUOY 41008 0150 85 87 150/ 12/ 14 1017.2R 2/ 9 2/ 70/ 9 FOLLY BEACH CMAN 0200 85 180/ 9/ 10 1017.6R CAPERS NEARSHORE 0208 85 85 200/ 10/ 12 1017.2R FRIPP NEARSHORE 0208 85 87 180/ 12/ 14 1017.0R STATION/POSITION TIME TEMP WIND PRES WAVE SWELL AIR SEA DIR/SP/G HT/PER HT/PER/DIR (UTC) (F) (DEG/KT/KT) (MB) (FT/S) (FT/S/D) 5E ST. MARYS GA 0201 87 N/A 3/ 9 FRYING PAN BUOY 0200 84 87 160/ 8/ 10 1017.0R BUOY 41025 0150 83 86 200/ 14/ 16 1016.5R 2/ 8 2/100/ 8 CAPE LOOKOUT NC 0200 82 190/ 11/ 13 1016.5R BUOY 41002 0150 83 86 90/ 2/ 4 1017.3R 3/ 8 3/100/ 8 BUOY 41010 0120 85 87 70/ 4/ 6 1017.2R ST AUGUSTINE FL 0200 84 88 200/ 6/ 7 1018.8R $$

USA.gov is the U.S. government's official web portal to all federal, state and local government web resources and services.